| time (UTC) | temp C | wind direction | speed KPH | gust KPH | rain 1hr cm | rain 24hr cm | rain mn cm | humidity % | barometer mb |
| 20260504120124 | 7 | 298 | 16.1 | 24.1 | 0.00 | 0.00 | 0.00 | 59 | 1016.0 |
| 20260504081530 | 8 | 17 | 20.9 | 38.6 | 0.00 | 0.00 | 0.00 | 57 | 1015.8 |
| 20260504044554 | 13 | 355 | 25.7 | 37.0 | 0.00 | 0.00 | 0.00 | 40 | 1011.4 |
| 20260504043112 | 13 | 13 | 20.9 | 32.2 | 0.00 | 0.00 | 0.00 | 39 | 1010.7 |
| 20260504041554 | 13 | 5 | 19.3 | 25.7 | 0.00 | 0.00 | 0.00 | 38 | 1010.4 |
| 20260504040053 | 13 | 11 | 17.7 | 24.1 | 0.00 | 0.00 | 0.00 | 38 | 1010.1 |
| 20260504034554 | 14 | 360 | 16.1 | 24.1 | 0.00 | 0.00 | 0.00 | 38 | 1009.8 |
| 20260504033103 | 15 | 5 | 17.7 | 25.7 | 0.00 | 0.00 | 0.00 | 37 | 1009.5 |
| 20260504031556 | 15 | 19 | 16.1 | 25.7 | 0.00 | 0.00 | 0.00 | 37 | 1009.3 |
| 20260504024552 | 16 | 15 | 17.7 | 33.8 | 0.00 | 0.00 | 0.00 | 33 | 1008.8 |
| 20260504023050 | 17 | 16 | 20.9 | 32.2 | 0.00 | 0.00 | 0.00 | 30 | 1008.6 |
| 20260504021552 | 18 | 14 | 22.5 | 29.0 | 0.00 | 0.00 | 0.00 | 26 | 1008.6 |
| 20260504020054 | 19 | 360 | 9.7 | 16.1 | 0.00 | 0.00 | 0.00 | 24 | 1008.5 |
| 20260504014547 | 20 | 348 | 16.1 | 22.5 | 0.00 | 0.00 | 0.00 | 23 | 1008.6 |
| 20260504013051 | 21 | 360 | 14.5 | 22.5 | 0.00 | 0.00 | 0.00 | 23 | 1008.6 |
| 20260504011541 | 21 | 345 | 12.9 | 29.0 | 0.00 | 0.00 | 0.00 | 23 | 1008.6 |
| 20260504010051 | 22 | 360 | 16.1 | 29.0 | 0.00 | 0.00 | 0.00 | 22 | 1008.7 |
| 20260504004544 | 22 | 338 | 17.7 | 27.4 | 0.00 | 0.00 | 0.00 | 22 | 1008.8 |
| 20260504003036 | 22 | 340 | 22.5 | 32.2 | 0.00 | 0.00 | 0.00 | 22 | 1008.9 |
| 20260504001538 | 22 | 341 | 17.7 | 32.2 | 0.00 | 0.00 | 0.00 | 22 | 1009.0 |
| 20260504000033 | 22 | 333 | 16.1 | 33.8 | 0.00 | 0.00 | 0.00 | 21 | 1009.1 |
| 20260503234535 | 22 | 344 | 22.5 | 33.8 | 0.00 | 0.00 | 0.00 | 21 | 1009.1 |
| 20260503233031 | 22 | 324 | 17.7 | 29.0 | 0.00 | 0.00 | 0.00 | 21 | 1009.2 |
| 20260503231529 | 22 | 329 | 9.7 | 30.6 | 0.00 | 0.00 | 0.00 | 21 | 1009.2 |
| 20260503230029 | 23 | 283 | 16.1 | 30.6 | 0.00 | 0.00 | 0.00 | 21 | 1009.3 |
| 20260503224527 | 23 | 279 | 17.7 | 33.8 | 0.00 | 0.00 | 0.00 | 21 | 1009.4 |
| 20260503223024 | 22 | 302 | 14.5 | 29.0 | 0.00 | 0.00 | 0.00 | 22 | 1009.6 |
| 20260503221522 | 22 | 301 | 17.7 | 29.0 | 0.00 | 0.00 | 0.00 | 21 | 1009.8 |
| 20260503220030 | 22 | 331 | 14.5 | 32.2 | 0.00 | 0.00 | 0.00 | 22 | 1009.9 |
| 20260503214529 | 22 | 271 | 20.9 | 30.6 | 0.00 | 0.00 | 0.00 | 21 | 1010.1 |
| 20260503213029 | 22 | 290 | 16.1 | 25.7 | 0.00 | 0.00 | 0.00 | 22 | 1010.1 |
| 20260503211516 | 22 | 277 | 19.3 | 37.0 | 0.00 | 0.00 | 0.00 | 23 | 1010.5 |
| 20260503210016 | 22 | 291 | 12.9 | 33.8 | 0.00 | 0.00 | 0.00 | 23 | 1010.7 |
| 20260503204521 | 21 | 283 | 16.1 | 29.0 | 0.00 | 0.00 | 0.00 | 23 | 1010.8 |
| 20260503203012 | 21 | 309 | 11.3 | 27.4 | 0.00 | 0.00 | 0.00 | 23 | 1010.9 |
| 20260503201506 | 22 | 298 | 16.1 | 27.4 | 0.00 | 0.00 | 0.00 | 24 | 1011.2 |
| 20260503200006 | 21 | 336 | 12.9 | 30.6 | 0.00 | 0.00 | 0.00 | 23 | 1011.4 |
| 20260503194502 | 21 | 254 | 17.7 | 30.6 | 0.00 | 0.00 | 0.00 | 23 | 1011.5 |
| 20260503193110 | 21 | 315 | 16.1 | 25.7 | 0.00 | 0.00 | 0.00 | 22 | 1011.7 |
| 20260503191608 | 20 | 280 | 17.7 | 29.0 | 0.00 | 0.00 | 0.00 | 23 | 1011.8 |
| 20260503190057 | 20 | 304 | 9.7 | 22.5 | 0.00 | 0.00 | 0.00 | 23 | 1012.0 |
| 20260503184553 | 21 | 261 | 9.7 | 20.9 | 0.00 | 0.00 | 0.00 | 24 | 1012.2 |
| 20260503183056 | 21 | 260 | 12.9 | 24.1 | 0.00 | 0.00 | 0.00 | 24 | 1012.3 |
| 20260503181558 | 20 | 277 | 14.5 | 29.0 | 0.00 | 0.00 | 0.00 | 25 | 1012.6 |
| 20260503180049 | 20 | 345 | 11.3 | 27.4 | 0.00 | 0.00 | 0.00 | 25 | 1012.7 |
| 20260503174543 | 20 | 327 | 16.1 | 27.4 | 0.00 | 0.00 | 0.00 | 25 | 1012.8 |
| 20260503173040 | 20 | 340 | 16.1 | 25.7 | 0.00 | 0.00 | 0.00 | 25 | 1013.1 |
| 20260503171535 | 20 | 286 | 14.5 | 25.7 | 0.00 | 0.00 | 0.00 | 27 | 1013.1 |